Location: Baumgarten
(49.0970°N, 12.7493°E)
Time: 02:29:31
(UTC+00:00)

CZ-4C R/B - Pass Details

Date: 05 July 2020
Orbit: 632 x 1369 km, 63.4° (Epoch: 04 August)

Event Time Altitude Azimuth Distance (km) Brightness Sun altitude
Rises 21:36:17 0° 311° (NW) 3,580 6.7 -15.0°
Reaches altitude 10° 21:38:59 10° 322° (NW) 2,750 6.1 -15.2°
Maximum altitude 21:44:48 32° 24° (NNE) 1,826 4.4 -15.5°
Drops below altitude 10° 21:51:31 10° 85° (E) 3,205 5.0 -15.9°
Sets 21:54:55 0° 95° (E) 4,262 5.6 -16.1°
